AAL341 KLAX-EDDF

Flight info

Callsign AAL341
Flight time N/A
Altitude 33000
Route OSHNN1 BEALE Q842 WINEN DCT MLF DCT KU66Q DCT KU75S DCT KD84U DCT KU06W DCT KP18Y DCT AMENU DCT YYQ/N0483F350 DCT YZS DCT 65N080W 67N070W/M084F350 DCT CANEL DCT 69N050W 70N040W 70N030W/M084F370 69N020W 67N010W DCT GUNPA/N0478F370 DCT ATTUS DCT RIMET/N0493F310 T157 KOKEB/N0448F230 T157 KERAX KERAX5A
Aircraft B77W/H-SDE1E2E3FGHIJ2J3J4J5M1RWXY/LB1D1

Departure

Time 2026-04-25 01:59
Airport Los Angeles International Airport (KLAX)

Arrival

Time N/A
Airport Frankfurt Main Airport (EDDF)
Time Latitude Longitude Altitude Speed Heading
2026-04-25 01:23 33.94259 -118.41136 130 ft 0 kts 85°
2026-04-25 01:46 33.94259 -118.41140 130 ft 3 kts 85°
2026-04-25 01:46 33.94256 -118.41171 128 ft 4 kts 82°
2026-04-25 01:47 33.94254 -118.41199 126 ft 4 kts 99°
2026-04-25 01:47 33.94265 -118.41220 126 ft 4 kts 162°
2026-04-25 01:47 33.94290 -118.41225 125 ft 3 kts 173°
2026-04-25 01:47 33.94293 -118.41226 127 ft 0 kts 172°
2026-04-25 01:49 33.94290 -118.41225 125 ft 5 kts 172°
2026-04-25 01:50 33.94203 -118.41213 127 ft 18 kts 172°
2026-04-25 01:50 33.94194 -118.41211 128 ft 0 kts 172°
2026-04-25 01:51 33.94175 -118.41208 128 ft 13 kts 172°
2026-04-25 01:51 33.94059 -118.41188 128 ft 17 kts 172°
2026-04-25 01:51 33.93939 -118.41172 128 ft 17 kts 176°
2026-04-25 01:52 33.93809 -118.41148 128 ft 21 kts 157°
2026-04-25 01:52 33.93781 -118.40974 126 ft 31 kts 84°
2026-04-25 01:52 33.93798 -118.40785 126 ft 27 kts 84°
2026-04-25 01:52 33.93825 -118.40534 125 ft 27 kts 82°
2026-04-25 01:53 33.93844 -118.40321 130 ft 22 kts 84°
2026-04-25 01:53 33.93865 -118.40143 127 ft 21 kts 81°
2026-04-25 01:53 33.93878 -118.39964 130 ft 21 kts 82°
2026-04-25 01:53 33.93901 -118.39794 127 ft 17 kts 83°
2026-04-25 01:54 33.93916 -118.39656 130 ft 17 kts 83°
2026-04-25 01:54 33.93931 -118.39501 129 ft 23 kts 84°
2026-04-25 01:54 33.93949 -118.39327 129 ft 17 kts 82°
2026-04-25 01:54 33.93962 -118.39196 127 ft 15 kts 85°
2026-04-25 01:55 33.93964 -118.39071 127 ft 14 kts 91°
2026-04-25 01:55 33.93980 -118.38951 129 ft 20 kts 70°
2026-04-25 01:55 33.94009 -118.38751 127 ft 35 kts 84°
2026-04-25 01:55 33.94032 -118.38518 129 ft 26 kts 83°
2026-04-25 01:56 33.94054 -118.38309 126 ft 22 kts 82°
2026-04-25 01:56 33.94068 -118.38156 130 ft 13 kts 84°
2026-04-25 01:56 33.94075 -118.38056 130 ft 9 kts 97°
2026-04-25 01:56 33.94072 -118.38044 129 ft 0 kts 105°
2026-04-25 01:58 33.94051 -118.38008 128 ft 11 kts 142°
2026-04-25 01:58 33.94015 -118.37999 126 ft 4 kts 188°
2026-04-25 01:58 33.93981 -118.38076 127 ft 1 kts 260°
2026-04-25 01:58 33.93979 -118.38094 128 ft 17 kts 261°
2026-04-25 01:59 33.93928 -118.38566 128 ft 102 kts 263°
2026-04-25 01:59 33.93799 -118.39786 134 ft 191 kts 262°
2026-04-25 01:59 33.93602 -118.41563 697 ft 227 kts 262°
2026-04-25 01:59 33.93367 -118.43485 1540 ft 243 kts 261°
2026-04-25 02:00 33.93096 -118.45513 2886 ft 245 kts 255°
2026-04-25 02:00 33.92341 -118.47357 3554 ft 252 kts 230°
2026-04-25 02:00 33.91194 -118.48990 4135 ft 258 kts 230°
2026-04-25 02:00 33.90017 -118.50637 4820 ft 259 kts 230°
2026-04-25 02:01 33.88819 -118.52220 4982 ft 256 kts 219°
2026-04-25 02:01 33.87178 -118.53027 5018 ft 263 kts 183°
2026-04-25 02:01 33.85349 -118.52906 5022 ft 265 kts 176°
2026-04-25 02:01 33.83501 -118.52739 4999 ft 266 kts 178°
2026-04-25 02:02 33.81652 -118.52609 5004 ft 267 kts 179°
2026-04-25 02:02 33.79789 -118.52503 5019 ft 269 kts 179°
2026-04-25 02:02 33.77904 -118.52413 5011 ft 272 kts 180°
2026-04-25 02:02 33.76016 -118.52334 4999 ft 272 kts 180°
2026-04-25 02:03 33.74238 -118.52262 5074 ft 272 kts 180°
2026-04-25 02:03 33.72354 -118.52184 5783 ft 271 kts 178°
2026-04-25 02:03 33.70499 -118.51606 6415 ft 280 kts 150°
2026-04-25 02:03 33.69140 -118.49978 7069 ft 285 kts 120°
2026-04-25 02:04 33.68369 -118.47714 7585 ft 294 kts 110°
2026-04-25 02:04 33.67709 -118.45413 8284 ft 296 kts 110°
2026-04-25 02:04 33.67035 -118.43069 9041 ft 299 kts 110°
2026-04-25 02:04 33.66332 -118.40659 9671 ft 306 kts 111°
2026-04-25 02:05 33.65613 -118.38219 10254 ft 312 kts 111°
2026-04-25 02:05 33.64932 -118.35777 10846 ft 317 kts 106°
2026-04-25 02:05 33.64480 -118.33126 11180 ft 331 kts 100°
2026-04-25 02:05 33.64311 -118.30247 11324 ft 353 kts 90°
2026-04-25 02:06 33.64371 -118.27243 11500 ft 375 kts 89°
2026-04-25 02:06 33.64434 -118.23995 11825 ft 392 kts 89°
2026-04-25 02:06 33.64603 -118.20702 12214 ft 401 kts 77°
2026-04-25 02:06 33.65642 -118.17586 12742 ft 406 kts 55°
2026-04-25 02:07 33.67499 -118.15058 13422 ft 402 kts 34°
2026-04-25 02:07 33.69715 -118.13078 13986 ft 406 kts 32°
2026-04-25 02:07 33.72024 -118.11076 14580 ft 412 kts 32°
2026-04-25 02:07 33.74381 -118.09024 15283 ft 416 kts 32°
2026-04-25 02:08 33.76700 -118.06984 15930 ft 420 kts 32°
2026-04-25 02:08 33.79062 -118.04884 16558 ft 426 kts 32°
2026-04-25 02:08 33.81454 -118.02743 17182 ft 431 kts 32°
2026-04-25 02:08 33.83868 -118.00573 17818 ft 436 kts 32°
2026-04-25 02:09 33.86308 -117.98375 18414 ft 441 kts 32°
2026-04-25 02:09 33.88775 -117.96153 18975 ft 445 kts 32°
2026-04-25 02:09 33.91267 -117.93906 19558 ft 448 kts 32°
2026-04-25 02:09 33.93763 -117.91632 20154 ft 451 kts 32°
2026-04-25 02:10 33.96268 -117.89339 20733 ft 455 kts 32°
2026-04-25 02:10 33.98801 -117.87018 21262 ft 459 kts 32°
2026-04-25 02:10 34.01360 -117.84676 21812 ft 464 kts 32°
2026-04-25 02:10 34.03940 -117.82314 22340 ft 467 kts 31°
2026-04-25 02:11 34.06532 -117.79934 22883 ft 472 kts 32°
2026-04-25 02:11 34.09039 -117.77333 23382 ft 480 kts 38°
2026-04-25 02:11 34.11359 -117.74379 23810 ft 489 kts 45°
2026-04-25 02:11 34.13511 -117.71182 24229 ft 494 kts 47°
2026-04-25 02:12 34.15657 -117.67921 24686 ft 497 kts 47°
2026-04-25 02:12 34.17811 -117.64647 25115 ft 500 kts 47°
2026-04-25 02:12 34.19993 -117.61360 25532 ft 503 kts 46°
2026-04-25 02:12 34.22195 -117.58069 25941 ft 506 kts 46°
2026-04-25 02:13 34.24422 -117.54754 26325 ft 509 kts 46°
2026-04-25 02:13 34.26663 -117.51421 26704 ft 513 kts 46°
2026-04-25 02:13 34.28916 -117.48065 27028 ft 517 kts 46°
2026-04-25 02:13 34.31094 -117.44816 27371 ft 520 kts 46°
2026-04-25 02:14 34.33372 -117.41413 27787 ft 522 kts 46°
2026-04-25 02:14 34.35577 -117.38115 28160 ft 525 kts 46°
2026-04-25 02:14 34.37883 -117.34663 28516 ft 528 kts 46°
2026-04-25 02:14 34.40198 -117.31195 28865 ft 531 kts 46°
2026-04-25 02:15 34.42524 -117.27704 29202 ft 534 kts 46°
2026-04-25 02:15 34.44864 -117.24190 29537 ft 537 kts 46°
2026-04-25 02:15 34.47211 -117.20661 29854 ft 540 kts 46°
2026-04-25 02:15 34.49571 -117.17110 30107 ft 542 kts 46°
2026-04-25 02:16 34.51916 -117.13577 30335 ft 545 kts 46°
2026-04-25 02:16 34.54329 -117.09940 30537 ft 548 kts 46°
2026-04-25 02:16 34.56746 -117.06354 30729 ft 551 kts 46°
2026-04-25 02:16 34.59202 -117.02780 30919 ft 553 kts 45°
2026-04-25 02:17 34.61676 -116.99206 31099 ft 554 kts 45°
2026-04-25 02:17 34.64163 -116.95611 31288 ft 556 kts 45°
2026-04-25 02:17 34.66727 -116.91889 31429 ft 560 kts 45°
2026-04-25 02:17 34.71649 -116.84698 31922 ft 561 kts 45°
2026-04-25 02:18 34.76685 -116.77307 32443 ft 561 kts 45°
2026-04-25 02:18 34.81603 -116.70083 32839 ft 563 kts 45°
2026-04-25 02:18 34.88309 -116.60356 32816 ft 562 kts 43°
2026-04-25 02:19 35.09077 -116.32807 32733 ft 546 kts 42°
2026-04-25 02:19 35.29709 -116.04925 32851 ft 561 kts 42°
2026-04-25 02:20 35.50512 -115.76574 32749 ft 551 kts 42°
2026-04-25 02:20 35.66577 -115.54537 32835 ft 553 kts 42°
2026-04-25 02:21 35.81833 -115.33446 32784 ft 559 kts 43°
2026-04-25 02:21 35.92173 -115.19060 32792 ft 548 kts 42°
2026-04-25 02:21 35.97512 -115.11615 32820 ft 547 kts 42°